World > North America > United States > North Carolina

Hourly Ayden, NC Regional Weather

Feedback E-mail the Weather

Latest News

Ayden, NC Weather Maps

°F °C°F °C
Ayden Weather Map
UTC Time: 5/26/2022, 08:27
Your Time:

Ayden, NC Regional Weather

Expires:202205260900;;600185
ASUS42 KMHX 260826
RWRMHX
WEATHER ROUNDUP FOR EASTERN NORTH CAROLINA
NATIONAL WEATHER SERVICE NEWPORT/MOREHEAD CITY NC
400 AM EDT THU MAY 26 2022

NOTE: "FAIR" INDICATES FEW OR NO CLOUDS BELOW 12,000 FEET
WITH NO SIGNIFICANT WEATHER AND/OR OBSTRUCTIONS TO VISIBILITY


NCZ011>013-027>030-043-044-078>080-089-090>093-098-260900-
COASTAL PLAIN
  
CITY           SKY/WX    TMP DP  RH WIND       PRES   REMARKS
AHOSKIE        DRIZZLE   59  59 100 NE5       30.22S                  
ROCKY MOUNT    CLOUDY    61  58  90 N6        30.22S                  
GREENVILLE     CLOUDY    61  61 100 N6        30.21S                  
WASHINGTON     CLOUDY    61  59  94 N5        30.21F FOG              
GOLDSBORO      CLOUDY    62  59  88 N3        30.19S                  
KINSTON        CLOUDY    62  61  96 N5        30.22R                  
NEW BERN       CLOUDY    63  62  97 N6        30.20F                  
HAVELOCK       CLOUDY    64  63  96 N3        30.20F                  
KENANSVILLE    CLOUDY    63  61  94 MISG      30.22S                  
RICHLANDS      CLOUDY    63  61  93 CALM      30.21F FOG              
CLINTON        CLOUDY    63  63  99 CALM      30.22S                  
ELIZABETHTOWN  CLOUDY    65  61  88 E3        30.21S                  
WHITEVILLE     CLOUDY    65  61  86 CALM      30.21F                  

$$


SKY/WX - Weather  TMP - Temperature  DP - Dew Point  RH - Humidity
WIND - Wind Direction/Speed PRES - Barometric Pressure VSB - Visibility
WCI - Wind Chill Index E13G22 Wind - East Wind 13 mph/Gusts of 22 mph

Trending Headlines

Ayden Radar Loop



Ayden Quick Facts


National Two Day Weather Forecast


E-mail the Ayden Weather Forecast

Voice your opinion or tell us about page issues...